Regional Weather Roundup
Issued by NWS

Home | Current Version | Previous Version | Graphics & Text | Print | Product List | Glossary On
Versions: 1 2 3 4 5 6 7 8 9 10 11 12 13 14 15 16 17 18 19 20 21 22 23 24 25 26 27 28 29 30 31 32 33 34 35 36 37 38 39 40 41 42 43 44 45 46 47 48 49 50
742
ASUS43 KMPX 040710
RWRMN
WEATHER ROUNDUP FOR MINNESOTA
NATIONAL WEATHER SERVICE TWIN CITIES/CHANHASSEN MN
200 AM CDT WED MAY 04 2016


NOTE: "FAIR" INDICATES FEW OR NO CLOUDS BELOW 12,000 FEET WITH NO
SIGNIFICANT WEATHER AND/OR OBSTRUCTIONS TO VISIBILITY. N/A MEANS
CURRENT SKY AND/OR WEATHER CONDITIONS ARE NOT AVAILABLE.

MNZ060>063-068>070-040800-
   Twin Cities Metro

CITY           SKY/WX    TMP DP  RH WIND       PRES   REMARKS
TWIN CITIES    CLEAR     54  33  45 NE14      29.87R
ST PAUL        CLEAR     53  34  48 NE15      29.88R
CRYSTAL        CLEAR     54  33  45 N9        29.87R
BLAINE         CLEAR     54  34  47 NE12G17   29.88R
EDEN PRAIRIE   CLEAR     55  32  41 N13G22    29.86R
SOUTH ST PAUL  CLEAR     54  32  43 NE8G18    29.87R
LAKE ELMO      FAIR      52  34  50 N12G20    29.88R
$$
MNZ001>005-007-008-013>017-022>024-027-028-040800-
   Northwest Minnesota

CITY           SKY/WX    TMP DP  RH WIND       PRES   REMARKS
BEMIDJI        CLEAR     35  29  82 NW7       29.97R WCI  29
HALLOCK        CLEAR     39  30  70 N6        30.03S
ROSEAU         CLEAR     43  36  75 N7        30.01R
WARROAD        CLEAR     41  36  81 NW7       30.01R
THIEF RVR FALL CLEAR     45  32  61 N9        30.02R
CROOKSTON      CLEAR     41  34  75 N6        30.03R
FOSSTON        CLEAR     37  34  87 N7        30.00R
DETROIT LAKES  PTCLDY    46  36  66 N7        29.99S
MOORHEAD       CLEAR     45  28  53 NW8       30.01R
PARK RAPIDS    CLEAR     44  32  62 N6        29.96R
MAHNOMEN       FAIR      42  34  75 N7        29.99R
$$
MNZ006-009>011-018-025>026-040800-
   North Central Minnesota

CITY           SKY/WX    TMP DP  RH WIND       PRES   REMARKS
BAUDETTE       CLEAR     42  34  73 N8        29.98R
FLAG ISLAND    CLEAR     46  36  66 N9        29.99R
INTL FALLS     CLEAR     38  30  73 N7        29.95R
WASKISH        PTCLDY    43  36  75 NW8       29.97R
BIG FORK       CLEAR     34  28  80 CALM      29.95R
LONGVILLE      CLEAR     39  34  81 CALM      29.95R
GRAND RAPIDS   CLEAR     39  28  65 CALM      29.95R
CRANE LAKE     CLEAR     28  27  93 CALM      29.94S
ORR            CLEAR     37  30  75 CALM      29.91R
COOK           CLEAR     34  28  80 CALM      29.93R
WALKER         FAIR      44  32  63 CALM      29.96R
$$
MNZ012-019>021-037-040800-
   Northeast Minnesota

CITY           SKY/WX    TMP DP  RH WIND       PRES   REMARKS
DULUTH         CLEAR     45  32  60 N9        29.90R
ELY            CLEAR     41  30  65 NW5       29.89S
HIBBING        CLEAR     35  29  78 N3        29.92R
EVELETH        CLEAR     43  30  61 N6        29.92S
DULUTH HARBOR  CLEAR     46  36  66 N16G22    29.90R
TWO HARBORS    CLEAR     46  34  61 N5        29.87S
SILVER BAY     CLEAR     45  30  57 NW5       29.86S
GRAND MARAIS     N/A     44  32  62 VRB3      29.85R
G MARAIS ARPRT PTCLDY    39  28  65 NW10      29.83S
$$
MNZ029>031-032-039>041-046>048-054>057-064-040800-
   West Central Minnesota

CITY           SKY/WX    TMP DP  RH WIND       PRES   REMARKS
FERGUS FALLS   CLEAR     48  36  61 NE7       29.96R
WHEATON        CLEAR     46  34  61 N6        30.01R
MORRIS         CLEAR     46  32  57 N9        29.96R
ALEXANDRIA     CLEAR     49  33  54 N9        29.97R
ELBOW LAKE     FAIR      48  35  60 N7        29.98R
WADENA         CLEAR     43  32  65 N3        29.96R
GLENWOOD       CLEAR     48  34  57 N9        29.96R
APPLETON       CLEAR     45  32  61 N8        29.96R
BENSON         CLEAR     43  30  61 N8        29.96R
ORTONVILLE     CLEAR     48  32  53 N12       29.98R
MADISON        CLEAR     48  30  49 N13       29.96R
WILLMAR        FAIR      52  34  50 N10       29.95R
$$
MNZ033>034-036-042>043-049>051-058-059-040800-
   Central Minnesota

CITY           SKY/WX    TMP DP  RH WIND       PRES   REMARKS
ST CLOUD       CLEAR     48  33  56 N7        29.92R
SAUK CENTRE    FAIR      49  33  53 N7        29.95R
PAYNESVILLE    CLEAR     48  32  53 N5        29.94R
AITKIN         CLEAR     43  28  56 NW3       29.92R
PINE RIVER     CLEAR     45  34  65 CALM      29.99R
BRAINERD       CLEAR     47  32  56 N6        29.94R
STAPLES        CLEAR     46  30  53 N5        29.96R
LONG PRAIRIE   FAIR      45  32  61 NW6       29.95R
LITTLE FALLS   CLEAR     46  32  57 CALM      29.94R
LITCHFIELD     CLEAR     52  34  50 N9        29.92R
BUFFALO        CLEAR     51  33  48 N6        29.91R
MAPLE LAKE     CLEAR     51  36  54 N9        29.92R
HUTCHINSON     CLEAR     52  35  52 N8        29.91R
$$
MNZ037-044-045-052-053-040800-
   East Central Minnesota

CITY           SKY/WX    TMP DP  RH WIND       PRES   REMARKS
PRINCETON      CLEAR     48  34  57 N5        29.91R
MORA           CLEAR     46  32  57 N3        29.92R
CAMBRIDGE      CLEAR     54  36  50 N6        29.89R
RUSH CITY      PTCLDY    45  33  63 N6        29.90R
MOOSE LAKE     CLEAR     46  32  57 N10       29.89R
HINCKLEY       CLOUDY    46  32  57 N7        29.91R
CLOQUET        CLEAR     43  30  61 NW7       29.91R
MCGREGOR       CLEAR     45  32  61 N5        29.93R
$$
MNZ071>073-080-081-089-090-097-098-040800-
   Southwest Minnesota

CITY           SKY/WX    TMP DP  RH WIND       PRES   REMARKS
MONTEVIDEO     CLEAR     50  32  50 NE12      29.96R
GRANITE FALLS  CLEAR     52  33  47 N12       29.95R
CANBY          CLEAR     50  35  55 W10       29.97R
MARSHALL       CLEAR     48  31  51 NW13      29.94R
REDWOOD FALLS  CLEAR     51  29  42 N10G18    29.91R
OLIVIA         CLEAR     46  32  57 N8        29.92R
PIPESTONE      CLEAR     48  28  46 N8        29.94R
WINDOM         CLEAR     46  30  53 NW12      29.90R
WORTHINGTON    CLEAR     46  34  62 N13       29.92R
JACKSON        CLEAR     48  30  49 N9        29.89R
TRACY          CLEAR     48  32  53 NW8       29.94R
SLAYTON        CLEAR     47  31  52 N14       29.94R
$$
MNZ065>067-074>077-082>085-091>093-040800-
   South Central Minnesota

CITY           SKY/WX    TMP DP  RH WIND       PRES   REMARKS
MANKATO        CLEAR     52  30  43 N13       29.86R
NEW ULM        CLEAR     52  28  40 N10       29.88R
ST JAMES       CLEAR     45  27  49 NW13      29.89R
FAIRMONT       CLEAR     52  30  43 N13       29.86R
GLENCOE        CLEAR     52  36  54 N8        29.89R
FARIBAULT      CLEAR     54  34  47 VRB12G18  29.85R
OWATONNA       CLEAR     54  30  40 N10G20    29.84R
WASECA         CLEAR     46  32  57 N9        29.86R
ALBERT LEA     CLEAR     52  32  46 N9        29.82R
$$
MNZ078>079-086>088-094>096-040800-
   Southeast Minnesota

CITY           SKY/WX    TMP DP  RH WIND       PRES   REMARKS
ROCHESTER      CLEAR     50  40  68 N16       29.82R
RED WING       CLEAR     54  32  43 N9        29.83R
STANTON        CLEAR     54  32  44 NE15      29.83R
DODGE CENTER   PTCLDY    46  34  61 N7        29.82R
WINONA         PTCLDY    54  41  62 N8        29.79R
AUSTIN         CLEAR     46  36  66 N5        29.81R
PRESTON        CLEAR     47  40  75 N8        29.80R
$$
ABBREVIATIONS USED IN REMARKS
   TC - TEMPERATURES IN CELSIUS
  WCI - WIND CHILL INDEX
   HX - HEAT INDEX
  VSB - VISIBILITY
$$




USA.gov is the U.S. government's official web portal to all federal, state and local government web resources and services.